Location: Namasale
(1.5000°N, 32.6167°E)
Time: 04:40:24
(UTC+00:00)

Hubble Space Telescope - Pass Details

Date: 04 December 2021
Orbit: 534 x 538 km, 28.5° (Epoch: 19 January)

Event Time Altitude Azimuth Distance (km) Brightness Sun altitude
Rises 17:07:56 0° 222° (SW) 2,674 5.5 -20.9°
Reaches altitude 10° 17:10:27 10° 209° (SSW) 1,781 4.1 -21.5°
Enters shadow 17:13:57 27° 151° (SSE) 1,035 2.1 -22.3°
